ECMWFNIL_850_dewp_021.txt.gz
Dewpoint
11 11 11 10 8 6 6 6 7 9 10 9 8 7 6 6 6 5 4 2 0 1 2 3 4 5 4 3 3 3 3 3 4 5 5 4 5 6 6 7 7 8
9 10 10 8 7 6 6 7 8 9 9 8 6 4 4 5 4 3 2 1 -1 -1 2 3 4 4 4 3 3 3 3 3 4 5 6 6 6 7 7 7 8 8
8 8 8 7 7 8 8 7 7 8 9 8 4 1 2 2 1 0 1 -0 -1 -1 2 4 4 4 3 3 3 3 3 4 5 6 7 7 7 7 8 8 9 9
7 6 6 6 7 8 8 7 6 7 8 6 1 -2 -1 -1 -1 -1 -1 -1 -2 -0 3 4 4 3 3 3 3 4 4 5 6 7 7 7 7 7 7 8 8 8
5 5 5 6 7 8 7 6 5 5 5 4 1 -1 -2 -4 -3 -2 -2 -2 -3 -1 2 4 4 3 3 4 5 5 6 6 7 7 8 7 7 7 8 8 8 8
4 4 4 5 5 6 6 4 2 2 2 2 0 -2 -4 -6 -5 -3 -2 -2 -2 -0 2 3 3 3 3 6 7 7 7 8 8 8 8 8 8 8 8 8 8 9
3 3 3 4 4 5 5 3 1 1 1 2 -0 -4 -6 -6 -5 -4 -2 -1 -1 -0 2 3 3 2 4 7 8 8 8 9 9 9 9 9 9 9 9 9 9 9
2 2 3 4 5 5 4 4 3 3 3 3 1 -3 -6 -6 -4 -2 -0 0 -1 -0 2 3 3 3 5 8 9 9 9 9 9 10 10 9 9 9 9 9 9 9
3 2 3 4 5 5 6 6 4 4 6 6 2 -3 -5 -5 -2 -0 1 -0 -2 -0 4 5 5 5 7 8 9 9 9 9 9 10 9 9 9 9 8 8 9 8
3 3 3 4 5 6 6 7 7 6 8 8 3 -3 -3 -0 -1 -0 1 0 -2 -0 4 6 7 7 8 8 9 9 9 9 9 9 9 9 9 8 7 7 8 7
3 2 3 3 5 5 7 8 9 9 8 7 3 -3 -0 4 3 0 2 1 -0 1 3 5 7 8 8 8 8 9 9 9 9 9 9 9 8 7 6 6 7 6
5 3 2 2 3 5 7 8 9 10 9 6 2 -2 2 6 5 2 1 0 3 4 3 4 7 8 7 8 8 8 9 9 9 9 9 9 8 6 5 6 6 6
8 5 2 1 4 7 8 9 10 12 10 6 1 -1 3 6 5 3 2 2 5 7 4 3 7 8 7 7 8 8 9 9 9 9 9 8 8 6 6 6 6 6
11 10 7 6 9 11 10 10 11 12 11 7 2 -0 2 5 5 3 3 5 7 7 4 4 7 8 8 8 8 8 9 9 9 9 8 8 7 6 6 7 7 7
13 13 12 12 13 13 11 11 12 13 12 8 4 1 2 5 6 4 4 7 7 5 3 5 8 8 8 8 8 8 9 8 7 7 7 6 6 6 7 7 8 8
15 15 15 15 15 14 14 13 12 13 13 10 5 3 4 5 6 4 4 6 6 3 3 6 8 8 8 8 8 9 9 7 6 5 5 5 6 7 8 8 8 8
15 16 16 16 16 15 15 15 13 12 13 11 6 3 4 6 6 5 5 6 6 4 3 6 9 9 8 9 9 9 9 7 6 5 5 6 7 8 8 8 8 8
15 16 16 17 17 16 15 15 15 13 12 11 9 6 6 7 6 6 7 7 5 5 5 7 9 8 8 9 10 10 9 7 6 7 7 8 9 9 9 9 9 9
15 16 17 16 17 17 16 16 15 13 11 11 11 10 9 7 6 7 9 7 5 5 6 7 8 6 7 10 10 10 9 8 8 8 9 10 11 11 11 11 10 9
16 16 17 17 17 17 16 16 14 12 11 11 12 11 9 8 6 8 8 6 4 5 6 8 7 5 7 10 10 10 10 9 10 10 11 11 11 11 11 11 10 9
16 16 16 17 17 17 16 16 15 13 12 11 11 11 9 8 7 8 6 5 5 5 6 7 7 6 9 10 10 10 10 10 10 11 11 11 11 11 11 10 9 9
15 16 16 16 16 17 16 16 15 14 13 11 11 11 10 9 8 7 5 5 6 6 6 6 6 7 9 10 10 11 10 10 11 11 11 11 11 10 10 9 9 9
15 16 16 16 16 16 16 16 15 15 13 12 12 11 11 10 8 5 5 6 8 7 6 6 7 8 8 10 11 11 11 10 11 11 11 11 10 9 9 9 8 7
15 15 16 16 16 16 16 16 15 14 13 12 12 11 11 9 7 5 5 6 8 9 8 7 6 7 8 9 11 11 11 11 11 11 11 10 9 9 9 8 7 5
15 15 16 15 16 16 16 16 15 15 13 12 12 11 11 9 6 4 5 7 9 11 10 7 6 6 8 10 11 12 12 11 11 11 10 10 9 9 8 7 5 4
15 15 15 15 15 16 15 15 15 14 13 12 12 11 10 8 6 5 6 9 11 12 10 7 6 7 8 10 12 12 12 11 11 10 10 9 9 8 7 6 5 4

ECMWFNIL_850_dewp_024.txt.gz
Dewpoint
13 13 13 14 13 12 12 12 11 11 12 12 12 13 12 10 11 11 10 8 3 -2 -2 -0 2 2 4 6 6 5 4 6 9 9 7 6 8 8 9 8 8 8
13 13 13 14 13 13 12 11 10 11 11 10 9 10 10 9 10 10 10 8 3 -1 -2 -1 0 3 8 11 10 7 6 8 10 11 9 6 6 8 8 8 8 8
13 13 13 13 14 13 12 11 11 11 11 10 8 7 9 10 11 11 9 6 2 -0 -1 -1 0 4 9 11 10 8 8 9 11 11 10 7 7 9 9 9 9 9
14 14 13 13 13 13 11 11 11 10 10 10 7 7 10 11 11 10 7 4 3 1 -1 -1 1 4 7 8 7 7 8 8 8 8 8 8 8 8 8 9 9 9
14 14 13 13 13 12 10 9 9 8 10 11 8 7 10 11 10 9 7 4 2 0 -2 -1 1 2 4 4 3 4 5 5 4 5 7 7 7 8 8 9 8 8
14 14 13 13 12 11 9 7 8 9 10 10 9 6 7 8 9 9 5 -0 -2 -2 -2 -2 -1 1 2 2 2 3 4 5 5 7 8 8 8 10 10 10 9 8
14 14 13 12 11 10 8 7 8 8 8 8 8 5 4 8 9 6 -0 -5 -3 2 2 -1 -3 -1 0 -0 0 3 5 5 6 8 9 9 9 10 10 10 9 8
14 14 13 12 11 9 8 8 8 8 7 8 9 7 7 8 5 -1 -5 -4 -0 3 2 -1 -3 -2 -0 -1 -1 3 6 6 6 8 9 9 10 9 9 8 8 7
13 14 13 12 10 8 7 8 8 8 8 8 9 9 8 5 -1 -6 -6 -3 1 3 -0 -2 -2 -2 -1 -0 0 3 6 7 7 8 9 10 10 9 8 8 8 7
13 14 13 12 10 7 7 8 6 6 8 9 9 10 8 2 -5 -6 -5 -3 2 3 1 -2 -3 -2 -0 1 2 4 6 6 7 8 9 9 9 9 8 9 8 6
12 13 13 12 11 8 7 7 5 3 6 9 9 10 9 3 -4 -7 -5 -2 2 3 1 -1 -2 1 2 1 3 6 7 7 7 8 9 9 9 9 9 9 8 6
12 12 12 12 12 11 10 9 8 6 5 7 9 10 9 5 -2 -6 -6 -2 1 2 2 -1 -1 2 3 2 5 7 7 7 8 8 9 9 9 9 9 9 8 6
11 12 12 12 12 13 12 11 11 10 6 6 9 10 9 6 1 -4 -6 -2 2 4 4 1 -0 3 4 3 5 8 8 8 8 9 9 9 9 8 9 10 10 9
12 12 12 13 14 14 14 14 14 13 10 7 9 11 10 8 4 -1 -5 -1 3 5 5 2 2 5 5 3 5 7 8 9 9 9 9 8 8 9 10 11 10 9
12 13 14 15 16 16 15 16 16 15 13 8 6 10 11 10 8 3 -3 -2 3 6 4 2 4 6 6 3 4 6 8 9 8 9 9 8 9 10 11 11 10 9
13 14 15 16 17 17 16 17 17 16 15 11 7 8 11 12 11 7 -0 -1 3 5 4 2 4 7 6 4 4 6 9 9 8 8 8 8 9 11 11 11 10 10
14 15 15 16 17 17 17 17 17 17 16 15 12 9 10 12 13 9 2 1 4 5 4 4 5 7 7 5 5 7 9 9 9 9 9 9 9 10 10 10 11 11
15 15 16 17 17 16 17 17 17 17 16 16 15 13 11 12 14 11 5 3 4 5 6 6 6 8 8 6 6 8 9 10 9 9 10 10 10 10 10 11 11 11
14 14 16 17 17 16 16 17 17 17 17 16 15 14 12 12 13 12 7 3 4 5 6 6 6 8 8 6 6 9 10 10 10 10 11 12 12 12 12 12 12 11
13 14 17 18 17 16 16 16 16 17 17 16 16 15 14 12 12 11 7 3 4 5 6 6 7 9 8 5 7 9 10 10 10 10 10 11 12 12 13 12 12 11
12 14 17 18 17 16 16 16 16 16 17 16 16 16 15 14 12 10 9 6 5 5 6 6 7 9 8 5 6 8 10 10 11 10 10 11 11 11 12 12 12 11
12 14 17 18 17 17 17 16 16 16 16 16 16 16 15 14 12 10 10 9 6 6 7 8 8 9 7 5 5 7 9 11 11 11 11 11 11 11 11 11 12 12
12 14 17 17 17 17 16 16 16 16 16 16 16 16 15 14 13 12 11 9 7 8 9 8 9 10 8 5 5 6 9 11 11 11 11 11 11 11 11 11 11 11
14 16 17 17 17 17 16 16 16 16 16 16 16 16 15 14 14 13 11 10 10 10 10 10 10 10 8 7 7 7 8 10 11 11 12 11 11 11 11 11 11 10
14 17 17 17 17 17 16 16 16 16 16 16 16 15 14 14 13 12 11 12 12 12 11 11 11 9 9 9 9 7 7 10 11 11 12 12 11 11 11 11 10 9
14 16 17 17 16 16 16 16 16 15 15 16 15 14 14 13 12 12 12 13 13 12 12 12 10 8 10 11 9 7 8 9 10 11 11 11 11 11 11 11 10 9

ECMWFNIL_850_dewp_030.txt.gz
Dewpoint
12 12 12 12 12 12 13 14 14 13 12 12 12 12 12 14 15 15 15 14 14 14 12 6 -4 -6 3 6 9 12 9 4 7 8 4 1 -1 1 8 11 11 11
13 13 12 12 12 12 12 13 13 12 11 12 13 13 12 12 13 14 14 13 13 12 8 0 -8 -7 -2 2 5 7 5 2 8 12 8 3 0 1 6 10 11 11
13 13 13 13 13 12 12 12 13 12 11 12 13 14 13 12 12 13 13 11 10 8 4 -4 -7 -7 -4 1 2 2 2 1 4 9 8 4 0 -0 4 9 11 12
13 13 13 14 13 12 12 12 13 12 12 12 13 14 14 13 12 12 11 11 8 5 1 -4 -7 -8 -6 -1 1 -0 1 0 0 4 5 3 1 1 4 9 12 12
13 13 13 14 14 13 12 12 12 12 12 13 13 14 14 14 13 12 10 10 8 5 2 -2 -7 -7 -7 -3 1 1 1 1 -0 1 2 1 0 1 3 7 9 10
13 13 13 14 14 14 12 12 11 11 11 12 12 13 13 13 13 12 10 9 8 5 3 -2 -7 -6 -5 -4 -0 2 2 1 1 -0 1 1 -0 1 3 5 5 8
13 13 13 14 14 14 13 12 11 10 11 11 11 12 12 12 12 12 10 10 8 5 2 -2 -8 -7 -4 -4 -3 -1 -0 0 0 -1 -0 0 0 1 3 5 6 7
13 13 13 13 14 14 14 13 12 11 11 11 12 12 12 12 11 11 10 10 8 5 3 -1 -6 -8 -5 -3 -2 -2 -2 -2 -0 -1 -1 0 1 2 2 4 7 8
14 13 12 13 14 14 13 13 13 13 13 13 13 13 13 12 11 10 10 9 8 6 4 1 -4 -8 -6 -2 0 0 -2 -3 -2 -2 -1 -0 0 1 1 2 5 5
14 14 13 12 12 13 13 13 14 15 14 14 14 15 14 13 12 11 11 10 9 8 5 2 -2 -7 -7 -3 1 2 -1 -3 -3 -2 -2 -1 -0 1 2 2 3 4
13 14 13 12 12 12 11 12 15 16 15 15 15 16 16 14 13 13 12 12 11 9 6 4 -0 -5 -7 -4 -0 2 0 -3 -3 -2 -2 -1 0 1 2 1 1 3
12 13 12 11 12 12 11 13 15 17 17 16 15 15 16 16 14 14 13 13 12 11 8 5 2 -2 -5 -5 -2 1 1 -2 -3 -3 -1 -0 0 2 3 3 2 3
11 12 11 11 11 11 13 14 16 17 18 17 16 15 16 16 14 14 14 13 13 12 10 8 5 1 -3 -6 -3 -0 0 -1 -3 -2 -1 -0 1 2 4 4 4 3
11 11 10 10 10 10 12 15 16 17 17 18 18 17 17 16 15 14 14 14 14 13 12 10 8 4 -1 -5 -5 -2 1 0 -2 -1 0 0 1 2 3 6 6 5
11 10 10 10 10 11 12 14 16 17 17 18 18 18 17 18 17 16 16 15 15 14 14 12 10 7 3 -2 -5 -3 1 1 -1 -1 1 1 1 2 4 6 7 7
13 12 11 11 12 12 13 14 15 17 18 18 18 18 18 18 18 18 17 16 16 15 15 14 12 10 6 1 -3 -4 -1 1 -0 -0 1 2 2 3 5 6 7 9
15 14 13 13 14 14 14 15 16 17 18 18 18 18 18 18 18 18 18 17 17 16 16 15 13 12 9 4 0 -1 -1 1 -0 0 2 3 3 5 6 8 10 10
15 15 16 16 15 15 16 16 17 18 18 19 18 18 18 18 18 18 17 17 17 17 16 16 15 14 11 8 4 1 0 0 -0 0 3 4 4 6 8 11 12 10
16 17 17 17 17 16 17 17 18 18 18 19 18 18 18 18 18 18 18 17 17 16 16 16 15 14 13 11 8 2 -1 0 -0 0 3 4 5 6 8 10 11 8
18 18 18 18 17 17 17 18 18 18 19 19 18 18 18 18 18 18 18 17 17 16 16 16 16 15 14 13 10 4 -0 0 0 1 4 5 6 8 8 8 9 9
19 19 18 18 18 18 18 18 18 19 19 19 18 18 18 18 18 18 18 17 17 16 16 15 16 15 14 13 11 6 1 1 1 2 5 5 6 8 8 8 8 10
19 19 18 18 18 18 19 19 18 18 19 18 18 18 18 18 18 18 18 17 17 16 16 15 15 15 14 14 12 6 1 2 2 2 5 6 7 8 8 8 8 10
19 18 18 18 18 18 19 19 19 19 18 18 18 18 18 18 18 18 18 18 17 16 16 16 15 14 14 14 11 5 2 5 4 3 5 7 8 8 8 8 9 10
19 18 18 18 18 18 18 19 19 18 18 18 18 18 17 17 17 17 17 17 17 16 16 16 15 14 14 13 10 5 4 6 7 5 5 6 8 8 8 8 9 10
19 19 18 18 17 17 18 18 18 17 17 18 18 18 17 17 17 17 17 17 16 16 16 15 15 14 13 13 11 8 6 7 8 6 5 6 8 8 7 8 9 9
19 19 18 18 17 17 18 18 16 16 16 16 17 17 17 17 17 17 17 16 16 15 15 15 15 15 14 13 12 11 9 8 7 6 6 7 8 8 7 8 8 9

ECMWFNIL_850_dewp_033.txt.gz
Dewpoint
10 11 10 11 12 12 12 12 13 14 13 12 11 10 10 10 10 11 11 12 12 12 12 11 12 10 1 -2 4 6 7 7 2 -1 -1 -1 -0 2 1 1 4 8
10 10 10 10 12 12 12 12 12 13 12 12 11 10 10 10 10 11 12 12 12 11 11 10 11 10 0 -6 -1 2 5 5 0 -1 -1 -2 -2 -1 -2 -1 3 5
9 10 10 10 11 12 12 12 13 13 12 11 11 11 11 10 11 12 12 13 12 11 11 9 8 6 -1 -8 -6 -3 1 2 1 -1 -2 -2 -1 -1 -2 -1 1 1
9 9 10 10 11 11 11 12 13 13 13 12 11 11 11 11 11 12 13 13 12 12 12 10 7 1 -6 -7 -7 -5 -2 -0 1 -0 -2 -2 -1 -1 -1 0 1 1
9 9 9 10 11 11 11 11 12 13 13 13 12 11 11 11 12 12 12 12 12 11 11 10 7 -0 -6 -7 -6 -6 -3 -2 -1 -1 -1 -2 -2 -0 -0 1 2 2
10 9 9 10 11 11 11 11 11 11 12 13 13 12 11 11 11 11 12 11 11 10 10 9 6 1 -5 -7 -7 -6 -5 -4 -2 -1 -1 -3 -2 -1 -0 1 2 2
12 10 9 10 11 11 11 11 11 11 12 13 13 12 11 10 10 11 11 11 11 10 10 9 6 2 -4 -8 -7 -6 -5 -4 -3 -3 -2 -2 -2 -1 -1 0 2 3
12 10 9 10 11 12 12 11 12 12 12 13 13 12 11 10 10 10 11 11 11 11 10 9 8 5 -2 -8 -8 -7 -4 -1 -2 -3 -2 -2 -2 -1 -1 -1 2 3
13 11 9 10 11 12 12 12 12 12 12 13 12 12 12 11 10 10 11 11 11 11 10 9 9 7 3 -4 -8 -8 -5 -1 -0 -2 -3 -2 -2 -1 -1 -1 2 3
14 12 10 10 10 11 11 12 12 12 13 12 12 12 12 11 10 10 11 11 11 11 10 9 9 8 6 1 -5 -9 -7 -2 1 -0 -3 -3 -2 -1 -1 -0 1 3
15 13 11 10 10 11 11 11 12 12 13 12 12 12 11 11 11 11 11 11 11 10 10 10 9 9 7 5 -0 -6 -8 -4 0 0 -2 -3 -2 -2 -1 0 1 2
15 14 11 10 10 10 11 11 12 12 12 12 12 12 12 12 12 12 12 12 11 11 11 10 10 10 9 7 4 -2 -7 -5 -0 1 -1 -3 -2 -1 -1 -0 1 2
14 12 10 9 10 10 10 11 12 12 12 12 12 13 13 13 12 12 12 12 13 12 12 13 12 12 11 10 8 3 -4 -6 -1 1 0 -2 -3 -2 -1 -0 1 1
13 10 9 9 10 10 10 11 11 12 13 12 12 13 13 13 13 13 13 14 14 14 14 14 14 13 13 12 10 7 0 -6 -5 0 1 -1 -3 -2 -1 -0 0 2
12 10 9 10 10 11 11 11 11 12 13 13 13 13 13 14 14 15 15 15 16 16 15 15 15 14 14 13 12 10 5 -2 -6 -2 1 0 -3 -3 -1 -1 0 2
13 11 11 10 11 11 10 11 12 13 14 14 15 14 14 15 16 16 16 16 16 16 16 16 16 15 15 14 13 12 9 4 -2 -4 -1 1 -2 -3 -2 -1 1 2
14 12 12 11 10 10 10 11 13 14 15 15 16 16 16 17 17 17 17 17 17 17 17 17 17 16 16 15 14 13 12 9 3 -3 -3 1 -0 -2 -2 -0 1 2
14 13 13 12 11 11 11 12 14 15 16 16 16 17 17 18 18 18 18 17 17 17 18 17 17 17 16 16 15 15 13 11 7 -0 -4 -1 1 -1 -2 -1 1 2
15 14 14 13 13 12 12 13 15 16 16 16 17 17 18 18 19 19 19 18 18 18 18 18 18 17 17 16 16 16 15 13 11 4 -3 -2 2 2 -1 -1 1 3
15 15 15 15 14 14 14 15 16 17 16 16 17 18 18 18 19 19 19 19 18 18 18 18 18 17 17 17 16 16 15 15 13 9 1 -1 3 4 0 -1 2 4
16 16 16 16 16 16 16 16 16 17 17 17 18 18 18 19 19 19 19 19 19 18 18 18 18 17 17 17 16 16 16 15 14 11 6 1 3 5 2 -0 3 6
17 16 17 17 17 17 17 17 17 18 18 18 18 19 19 19 19 19 19 19 19 19 18 18 18 17 17 17 16 16 16 15 14 13 8 5 6 6 2 1 4 7
17 17 17 17 18 18 18 18 18 18 19 19 19 19 19 19 19 19 19 19 19 18 18 18 18 17 17 17 16 16 16 15 15 13 10 9 9 7 3 3 5 7
18 18 18 18 18 18 18 18 18 19 19 19 19 19 19 19 19 18 18 18 18 18 18 18 18 17 17 16 16 16 16 15 14 12 11 10 9 6 5 5 5 7
18 18 18 18 19 19 19 19 19 19 19 19 19 19 19 19 18 18 18 18 18 18 18 18 18 18 17 16 16 16 16 15 13 12 11 10 8 5 4 4 5 7
18 19 19 19 19 19 19 19 19 19 19 19 19 19 19 19 18 18 18 18 18 18 18 17 17 17 17 16 16 16 15 15 13 11 9 8 6 4 4 5 6 7